Portada
METAR-TAF:

METAR-TAF

Aeroports :

Puerto Francisco de Orellana, Equador

latitud: 00-27-46S, longitud: 076-59-12W, altitud: 254 m

Observació

L'informe es va fer fa 9 hores i 23 minuts, a les 22:00 UTC
Vent 1 kt del Est/Nord-Est
Temperatura 33°C
Humitat 56%
Pressió 1007 hPa
Visibilitat 10 km o més
Escasses núvols a una alçada de 2300 ft

METAR: SECO 202200Z 06001KT 9999 FEW023 33/23 Q1007 RMK A2974

Hora: 02:23 (07:23 UTC)


TAF: manca

Observacions i pronòstics meteorològics de més de 4000 aeroports (METAR i TAF).

Les estacions disponibles són els punts grocs i vermells al mapa.

Posi el ratolí al punt desitjat per veure el nom de l'estació.

Feu clic per veure les observacions i els pronòstics meteorològics.

Per canviar el mapa: feu clic els botons verds amb una creu de color negre per apropar; al botó verd amb un guió per allunyar la imatge; o en les fletxes verdes per a mapes adjacents.


METAR-TAF: